Flag for Germany Weather past 2 weeks in Würzburg, Bavaria, Germany

Now
60 °F

Passing clouds.


Feels Like: 60 °F
Forecast: 62 / 82 °F
Wind: 1 mph from North

Location: Wuerzburg

Current Time: Jul 26, 2014 at 5:49:04 AM

Latest Report: Jul 26, 2014 at 5:00 AM


Visibility: 16 mi

Pressure: 29.87 "Hg

Humidity: 91%

Dew point: 58 °F

Location of WürzburgLocation

Historic Weather in Würzburg — Graph

°F

Würzburg temperature yesterday

Maximum temperature yesterday: 81 °F (at 5:00 PM)
Minimum temperature yesterday: 58 °F (at 5:00 AM)
Average temperature yesterday: 69 °F

Past Weeks' High & Low Weather Summary

 TemperatureHumidityPressure
High90 °F (Jul 19, 5:00 PM)99% (Jul 11, 5:00 AM)30.18 "Hg (Jul 11, 5:00 AM)
Low57 °F (Jul 15, 6:00 AM)28% (Jul 19, 4:00 PM)29.78 "Hg (Jul 13, 7:00 PM)
Average70 °F68%29.93 "Hg
* Reported Jul 11 4:00 AM — Jul 26 4:00 AM, Würzburg, Weather by CustomWeather, © 2014

Note: Actual official high and low records may vary slightly from our data, if they occured in-between our weather recording intervals... More about our weather records

Advertising

Würzburg weather history for previous 24 hours

 ConditionsComfort  
Time TempWeatherWind HumidityBarometerVisibility
4:00 AM
Jul 26
61 °FClear.1 mph87%29.87 "Hg16 mi
3:00 AM63 °FClear.1 mph83%29.88 "Hg19 mi
2:00 AM64 °FClear.2 mph78%29.88 "Hg22 mi
1:00 AM66 °FClear.2 mph72%29.87 "Hg19 mi
12:00 AM68 °FPassing clouds.2 mph65%29.87 "Hg22 mi
11:00 PM
Jul 25
70 °FPassing clouds.1 mph61%29.86 "Hg25 mi
10:00 PM72 °FPassing clouds.2 mph53%29.85 "Hg28 mi
9:00 PM74 °FPartly sunny.3 mph48%29.83 "Hg28 mi
8:00 PM78 °FPartly sunny.2 mph40%29.83 "Hg31 mi
7:00 PM78 °FPartly sunny.1 mph44%29.83 "Hg31 mi
6:00 PM79 °FPartly sunny.2 mph39%29.82 "Hg31 mi
5:00 PM81 °FScattered clouds.2 mph39%29.83 "Hg31 mi
4:00 PM80 °FScattered clouds.1 mph34%29.84 "Hg31 mi
3:00 PM79 °FScattered clouds.2 mph39%29.86 "Hg31 mi
2:00 PM76 °FPassing clouds.1 mph46%29.88 "Hg31 mi
1:00 PM75 °FPassing clouds.2 mph53%29.89 "Hg25 mi
12:00 PM72 °FPassing clouds.2 mph59%29.91 "Hg22 mi
11:00 AM68 °FScattered clouds.2 mph66%29.92 "Hg19 mi
10:00 AM67 °FPartly sunny.3 mph72%29.92 "Hg16 mi
9:00 AM65 °FScattered clouds.1 mph79%29.93 "Hg12 mi
8:00 AM61 °FPartly sunny.2 mph86%29.93 "Hg17 mi
7:00 AM61 °FPartly sunny.2 mph83%29.92 "Hg16 mi
6:00 AM58 °FScattered clouds.2 mph90%29.94 "Hg19 mi
5:00 AM58 °FPassing clouds.2 mph89%29.94 "Hg22 mi
Weather by CustomWeather, © 2014

See weather overviewHow to use our weather pages